Date String (YYYY-MM-DD hh:mm:ss) UTC,Instrument flags,Ambient pressure (hPa),Sample flow (lpm),Bypass flow (lpm),Sample temperature (°C),Ambient temperature (°C),ASC tube jacket temperature (°C),LED temperature (°C),Box temperature (°C),Sample RH (%),Span deviation,Mass concentration (μg/m³),Mass concentration (μg/m³),Mass concentration (μg/m³)
DateTimeUTC,F1_M11,P_M11,Q1_M11,Q2_M11,T1_M11,T2_M11,T3_M11,T4_M11,T5_M11,U1_M11,ZSPAN_M11,X0_M11,X2_M11,X1_M11
2023-05-12 18:00:00,,0830.9,5.00,0.00,24.6,23.4,00.0,32.9,26.4,29.7,0000.0,0005.94,0000.46,0000.15
2023-05-12 18:01:00,,0830.9,5.00,0.00,24.6,23.4,00.0,32.9,26.4,29.5,0000.0,0006.11,0000.47,0000.15
2023-05-12 18:02:00,,0830.8,5.00,0.00,24.7,23.4,00.0,32.9,26.4,29.8,0000.0,0007.24,0000.49,0000.16
2023-05-12 18:03:00,,0830.8,4.99,0.00,24.7,23.5,00.0,32.9,26.4,29.2,0000.0,0006.72,0000.49,0000.16
2023-05-12 18:04:00,,0830.8,4.99,0.00,24.7,23.5,00.0,32.9,26.4,29.3,0000.0,0006.49,0000.49,0000.16
2023-05-12 18:05:00,,0830.8,5.00,0.00,24.7,23.5,00.0,32.9,26.5,30.2,0000.0,0006.40,0000.51,0000.16
2023-05-12 18:06:00,,0830.9,5.00,0.00,24.7,23.6,00.0,33.0,26.5,29.6,0000.0,0005.18,0000.50,0000.16
2023-05-12 18:07:00,,0830.8,5.00,0.00,24.8,23.6,00.0,33.0,26.5,30.2,0000.0,0004.31,0000.45,0000.16
2023-05-12 18:08:00,,0830.8,5.01,0.00,24.8,23.6,00.0,33.0,26.6,30.6,0000.0,0002.97,0000.48,0000.17
2023-05-12 18:09:00,,0830.8,5.01,0.00,24.8,23.7,00.0,33.0,26.6,29.2,0000.0,0003.43,0000.51,0000.16
2023-05-12 18:10:00,,0830.7,5.00,0.00,24.9,23.7,00.0,33.0,26.6,28.8,0000.0,0003.58,0000.54,0000.16
2023-05-12 18:11:00,,0830.8,5.00,0.00,24.9,23.7,00.0,33.1,26.6,28.9,0000.0,0003.70,0000.56,0000.16
2023-05-12 18:12:00,,0830.7,5.00,0.00,24.9,23.8,00.0,33.1,26.6,29.0,0000.0,0003.66,0000.55,0000.16
2023-05-12 18:13:00,,0830.7,4.99,0.00,24.9,23.8,00.0,33.1,26.7,29.1,0000.0,0002.82,0000.53,0000.16
2023-05-12 18:14:00,,0830.7,5.01,0.00,25.0,23.8,00.0,33.1,26.7,29.1,0000.0,0002.36,0000.50,0000.15
2023-05-12 18:15:00,,0830.7,5.00,0.00,25.0,23.8,00.0,33.1,26.7,29.1,0000.0,0002.29,0000.49,0000.16
2023-05-12 18:16:00,,0830.7,5.00,0.00,25.0,23.9,00.0,33.2,26.8,29.8,0000.0,0002.24,0000.47,0000.15
2023-05-12 18:17:00,,0830.7,5.00,0.00,25.0,23.9,00.0,33.2,26.8,28.3,0000.0,0002.26,0000.46,0000.15
2023-05-12 18:18:00,,0830.6,5.00,0.00,25.1,23.9,00.0,33.2,26.8,28.2,0000.0,0002.27,0000.46,0000.15
2023-05-12 18:19:00,,0830.7,5.00,0.00,25.1,23.9,00.0,33.2,26.8,28.7,0000.0,0001.95,0000.46,0000.16
2023-05-12 18:20:00,,0830.7,5.00,0.00,25.1,24.0,00.0,33.3,26.9,29.8,0000.0,0001.13,0000.45,0000.16
2023-05-12 18:21:00,,0830.6,5.00,0.00,25.1,24.0,00.0,33.3,26.9,30.4,0000.0,0001.05,0000.43,0000.16
2023-05-12 18:22:00,,0830.6,4.99,0.00,25.1,24.0,00.0,33.3,26.9,29.9,0000.0,0000.95,0000.42,0000.17
2023-05-12 18:23:00,,0830.6,5.00,0.00,25.2,24.0,00.0,33.3,26.9,29.5,0000.0,0000.97,0000.42,0000.17
2023-05-12 18:24:00,,0830.6,5.01,0.00,25.2,24.1,00.0,33.3,27.0,30.0,0000.0,0000.94,0000.41,0000.17
2023-05-12 18:25:00,,0830.6,5.00,0.00,25.2,24.1,00.0,33.4,27.0,30.1,0000.0,0001.03,0000.44,0000.17
2023-05-12 18:26:00,,0830.6,4.99,0.00,25.2,24.1,00.0,33.4,27.0,30.4,0000.0,0001.12,0000.47,0000.17
2023-05-12 18:27:00,,0830.6,5.00,0.00,25.3,24.1,00.0,33.4,27.0,29.0,0000.0,0001.31,0000.47,0000.17
2023-05-12 18:28:00,,0830.6,5.00,0.00,25.3,24.2,00.0,33.4,27.1,28.7,0000.0,0001.35,0000.49,0000.17
2023-05-12 18:29:00,,0830.5,5.00,0.00,25.3,24.2,00.0,33.5,27.1,27.8,0000.0,0001.32,0000.49,0000.17
2023-05-12 18:30:00,,0830.6,5.00,0.00,25.3,24.2,00.0,33.5,27.1,27.3,0000.0,0001.40,0000.48,0000.16
2023-05-12 18:31:00,,0830.6,5.00,0.00,25.3,24.2,00.0,33.5,27.1,26.9,0000.0,0001.38,0000.46,0000.15
2023-05-12 18:32:00,,0830.6,5.00,0.00,25.4,24.2,00.0,33.5,27.1,26.9,0000.0,0001.22,0000.41,0000.14
2023-05-12 18:33:00,,0830.6,5.00,0.00,25.4,24.2,00.0,33.5,27.2,27.2,0000.0,0001.16,0000.39,0000.14
2023-05-12 18:34:00,,0830.6,5.00,0.00,25.4,24.2,00.0,33.6,27.2,28.2,0000.0,0001.10,0000.38,0000.13
2023-05-12 18:35:00,,0830.6,5.00,0.00,25.4,24.3,00.0,33.6,27.2,27.5,0000.0,0002.42,0000.40,0000.13
2023-05-12 18:36:00,,0830.5,5.00,0.00,25.5,24.3,00.0,33.6,27.2,27.7,0000.0,0002.88,0000.41,0000.13
2023-05-12 18:37:00,,0830.5,5.01,0.00,25.5,24.3,00.0,33.6,27.3,26.7,0000.0,0002.80,0000.38,0000.13
2023-05-12 18:38:00,,0830.6,4.99,0.00,25.5,24.3,00.0,33.7,27.3,26.1,0000.0,0002.64,0000.38,0000.13
2023-05-12 18:39:00,,0830.6,5.01,0.00,25.5,24.4,00.0,33.7,27.3,26.2,0000.0,0002.55,0000.36,0000.13
2023-05-12 18:40:00,,0830.6,5.00,0.00,25.6,24.4,00.0,33.7,27.3,26.6,0000.0,0002.56,0000.35,0000.13
2023-05-12 18:41:00,,0830.6,5.00,0.00,25.6,24.4,00.0,33.7,27.4,25.9,0000.0,0003.42,0000.36,0000.14
2023-05-12 18:42:00,,0830.5,5.00,0.00,25.6,24.4,00.0,33.7,27.4,25.2,0000.0,0003.67,0000.38,0000.13
2023-05-12 18:43:00,,0830.6,5.00,0.00,25.6,24.5,00.0,33.8,27.4,25.4,0000.0,0003.77,0000.41,0000.13
2023-05-12 18:44:00,,0830.6,5.00,0.00,25.6,24.5,00.0,33.8,27.4,25.9,0000.0,0003.85,0000.44,0000.13
2023-05-12 18:45:00,,0830.6,5.00,0.00,25.7,24.5,00.0,33.8,27.4,26.3,0000.0,0003.83,0000.43,0000.13
2023-05-12 18:46:00,,0830.7,5.00,0.00,25.7,24.5,00.0,33.8,27.4,25.0,0000.0,0002.96,0000.42,0000.13
2023-05-12 18:47:00,,0830.5,5.00,0.00,25.7,24.6,00.0,33.9,27.5,25.1,0000.0,0002.07,0000.39,0000.13
2023-05-12 18:48:00,,0830.4,5.00,0.00,25.7,24.6,00.0,33.9,27.5,25.6,0000.0,0002.04,0000.37,0000.13
2023-05-12 18:49:00,,0830.4,5.00,0.00,25.7,24.6,00.0,33.9,27.5,25.9,0000.0,0002.14,0000.38,0000.13
2023-05-12 18:50:00,,0830.6,4.99,0.00,25.8,24.6,00.0,33.9,27.5,27.0,0000.0,0002.12,0000.36,0000.12
2023-05-12 18:51:00,,0830.5,4.99,0.00,25.8,24.6,00.0,33.9,27.5,29.0,0000.0,0002.06,0000.35,0000.12
2023-05-12 18:52:00,,0830.4,5.00,0.00,25.8,24.6,00.0,34.0,27.5,28.7,0000.0,0002.53,0000.34,0000.11
2023-05-12 18:53:00,,0830.4,5.00,0.00,25.8,24.6,00.0,34.0,27.6,28.7,0000.0,0002.46,0000.34,0000.12
2023-05-12 18:54:00,,0830.5,5.00,0.00,25.8,24.6,00.0,34.0,27.6,30.2,0000.0,0002.43,0000.34,0000.13
2023-05-12 18:55:00,,0830.5,5.00,0.00,25.8,24.6,00.0,34.0,27.6,29.8,0000.0,0002.37,0000.32,0000.14
2023-05-12 18:56:00,,0830.5,5.00,0.00,25.8,24.6,00.0,34.0,27.6,29.5,0000.0,0002.47,0000.35,0000.14
2023-05-12 18:57:00,,0830.4,5.00,0.00,25.8,24.6,00.0,34.0,27.6,28.8,0000.0,0002.52,0000.37,0000.14
2023-05-12 18:58:00,,0830.5,5.01,0.00,25.8,24.6,00.0,34.1,27.6,27.5,0000.0,0002.53,0000.37,0000.14
2023-05-12 18:59:00,,0830.5,5.00,0.00,25.9,24.6,00.0,34.1,27.6,27.8,0000.0,0002.57,0000.39,0000.15
